TKJ2DK LYBE-LTBJ

Flight info

Callsign TKJ2DK
Flight time N/A
Altitude 37000
Route TPL4D/12L TPL DCT RAXAD DCT RUGAS UN128 RIKSO
Aircraft B38M/M-SDE1FGHILORVWXY/HB1

Departure

Time N/A
Airport Belgrade Nikola Tesla Airport (LYBE)

Arrival

Time 2026-05-03 20:22
Airport Adnan Menderes International Airport (LTBJ)
Time Latitude Longitude Altitude Speed Heading
2026-05-03 20:15 38.05253 27.14613 5605 ft 231 kts 95°
2026-05-03 20:15 38.05173 27.16536 5351 ft 209 kts 75°
2026-05-03 20:15 38.05356 27.18301 5112 ft 197 kts 73°
2026-05-03 20:15 38.05507 27.19447 4983 ft 190 kts 68°
2026-05-03 20:16 38.06137 27.20821 4727 ft 177 kts 37°
2026-05-03 20:16 38.07231 27.21402 4547 ft 173 kts 10°
2026-05-03 20:16 38.08439 27.21439 4310 ft 174 kts 359°
2026-05-03 20:16 38.09645 27.21237 4084 ft 175 kts 355°
2026-05-03 20:17 38.10845 27.20951 3891 ft 167 kts 353°
2026-05-03 20:17 38.11940 27.20647 3672 ft 157 kts 352°
2026-05-03 20:17 38.12998 27.20342 3478 ft 155 kts 352°
2026-05-03 20:17 38.14041 27.20037 3240 ft 154 kts 352°
2026-05-03 20:18 38.15081 27.19727 3022 ft 153 kts 352°
2026-05-03 20:18 38.16119 27.19417 2815 ft 153 kts 351°
2026-05-03 20:18 38.17160 27.19105 2590 ft 154 kts 351°
2026-05-03 20:18 38.18201 27.18794 2400 ft 154 kts 350°
2026-05-03 20:19 38.19236 27.18484 2196 ft 148 kts 350°
2026-05-03 20:19 38.20202 27.18194 2005 ft 139 kts 349°
2026-05-03 20:19 38.21131 27.17916 1819 ft 136 kts 349°
2026-05-03 20:19 38.22052 27.17639 1644 ft 136 kts 349°
2026-05-03 20:20 38.22975 27.17362 1441 ft 138 kts 349°
2026-05-03 20:20 38.23887 27.17089 1269 ft 125 kts 348°
2026-05-03 20:20 38.24708 27.16849 1043 ft 114 kts 348°
2026-05-03 20:20 38.25487 27.16622 885 ft 111 kts 346°
2026-05-03 20:21 38.26238 27.16397 755 ft 110 kts 344°
2026-05-03 20:21 38.26989 27.16159 628 ft 112 kts 347°
2026-05-03 20:21 38.27752 27.15935 454 ft 114 kts 345°
2026-05-03 20:21 38.28416 27.15726 418 ft 69 kts 347°
2026-05-03 20:22 38.28684 27.15647 417 ft 26 kts 346°
2026-05-03 20:22 38.28861 27.15591 414 ft 26 kts 346°
2026-05-03 20:22 38.29026 27.15549 414 ft 16 kts 341°
2026-05-03 20:22 38.29049 27.15461 423 ft 12 kts 257°
2026-05-03 20:23 38.29027 27.15342 416 ft 16 kts 257°
2026-05-03 20:23 38.29028 27.15236 415 ft 13 kts 318°
2026-05-03 20:23 38.29117 27.15197 420 ft 15 kts 347°
2026-05-03 20:23 38.29227 27.15164 418 ft 17 kts 347°
2026-05-03 20:24 38.29341 27.15128 413 ft 8 kts 341°
2026-05-03 20:24 38.29352 27.15066 419 ft 4 kts 256°
2026-05-03 20:24 38.29344 27.15025 414 ft 3 kts 256°
2026-05-03 20:24 38.29342 27.15017 417 ft 0 kts 256°